EW6613 Weather Reports


time (UTC)temp
C
wind
direction
speed
KPH
gust
KPH
rain 1hr
cm
rain 24hr
cm
rain mn
cm
humidity
%
barometer
mb
20260508181527 14 149 0.0 0.0 0.00 2.57 0.03 54 1001.2
20260508180026 13 23 0.0 0.0 0.00 2.57 0.03 57 1001.4
20260508174522 13 57 0.0 0.0 0.00 2.59 0.03 58 1001.5
20260508173020 13 82 0.0 0.0 0.00 2.59 0.03 60 1001.6
20260508171523 13 29 0.0 0.0 0.00 2.59 0.03 63 1001.7
20260508170018 13 46 0.0 0.0 0.00 2.59 0.03 64 1001.8
20260508164514 12 100 0.0 0.0 0.00 2.59 0.03 66 1002.1
20260508163011 12 29 0.0 0.0 0.00 2.59 0.03 68 1002.0
20260508161510 12 4 0.0 0.0 0.00 2.59 0.03 68 1001.9
20260508160018 12 46 0.0 0.0 0.00 2.59 0.03 69 1001.9
20260508154507 12 34 0.0 0.0 0.00 2.62 0.03 71 1002.2
20260508153006 12 68 0.0 0.0 0.00 2.62 0.03 71 1002.1
20260508151506 12 69 0.0 0.0 0.00 2.62 0.03 73 1002.0
20260508150100 11 28 0.0 0.0 0.00 2.62 0.03 74 1002.0
20260508144556 11 9 0.0 0.0 0.00 2.62 0.03 76 1002.1
20260508143104 11 36 0.0 0.0 0.00 2.62 0.03 79 1002.1
20260508141556 11 23 0.0 0.0 0.00 2.62 0.03 82 1002.2
20260508140051 11 102 0.0 0.0 0.00 2.62 0.03 84 1002.3
20260508134546 10 14 0.0 0.0 0.00 2.62 0.03 85 1002.6
20260508133053 10 46 0.0 0.0 0.00 2.62 0.03 87 1002.8
20260508131540 9 60 0.0 0.0 0.00 2.62 0.03 89 1002.9
20260508130036 9 64 0.0 0.0 0.00 2.62 0.03 92 1002.7
20260508124531 8 14 0.0 0.0 0.00 2.62 0.03 96 1002.4
20260508123030 8 19 0.0 0.0 0.00 2.62 0.03 98 1002.5
20260508121551 7 139 0.0 0.0 0.00 2.62 0.03 99 1002.4
20260508120031 7 14 0.0 0.0 0.00 2.62 0.03 99 1002.6
20260508114528 7 50 0.0 0.0 0.00 2.67 0.03 99 1002.9
20260508113028 6 36 0.0 0.0 0.00 2.67 0.03 99 1003.0
20260508111527 6 54 0.0 0.0 0.00 2.67 0.03 99 1002.8
20260508110026 6 59 0.0 0.0 0.00 2.67 0.03 99 1002.7
20260508104625 6 38 0.0 0.0 0.00 2.67 0.03 99 1002.8
20260508103023 6 67 0.0 0.0 0.00 2.67 0.03 99 1003.3
20260508101523 6 55 0.0 0.0 0.00 2.67 0.03 99 1003.0
20260508100022 6 32 0.0 0.0 0.00 2.67 0.03 99 1002.9
20260508094522 6 56 0.0 0.0 0.00 2.72 0.03 99 1003.1
20260508093023 6 38 0.0 0.0 0.00 2.72 0.03 99 1002.6
20260508091517 6 40 0.0 0.0 0.00 2.72 0.03 99 1002.4
20260508090017 6 44 0.0 0.0 0.00 2.72 0.03 99 1002.5
20260508084515 7 19 0.0 0.0 0.00 2.84 0.03 99 1002.4
20260508083039 7 29 0.0 0.0 0.00 2.84 0.03 99 1002.5
20260508081514 7 63 0.0 0.0 0.00 2.84 0.03 99 1002.0
20260508080013 7 36 0.0 0.0 0.00 2.84 0.03 99 1001.9
20260508074512 7 41 0.0 0.0 0.00 2.92 0.03 99 1002.1
20260508073011 6 65 0.0 0.0 0.00 2.92 0.03 99 1001.9
20260508071510 7 65 0.0 0.0 0.00 2.92 0.03 99 1002.0
20260508070012 7 62 0.0 0.0 0.00 2.92 0.03 99 1002.0
20260508064527 7 177 0.0 0.0 0.00 2.92 0.03 99 1002.0
20260508063008 7 177 0.0 0.0 0.03 2.92 0.03 99 1001.9
20260508061507 7 178 0.0 0.0 0.03 2.92 0.03 99 1002.1
20260508060008 7 5 0.0 0.0 0.03 2.92 0.03 99 1002.1
20260508054505 7 5 0.0 0.0 0.03 2.92 0.03 99 1002.0
20260508053004 7 290 0.0 0.0 0.00 2.90 0.00 99 1002.0
20260508051503 7 290 0.0 0.0 0.00 2.90 0.00 99 1001.8
20260508050002 7 290 0.0 0.0 0.00 2.90 0.00 99 1001.7
20260508044602 7 290 0.0 0.0 0.00 2.90 0.00 99 1001.9
20260508043100 7 290 0.0 0.0 0.00 2.90 0.00 98 1002.0
20260508041604 7 290 0.0 0.0 0.00 2.90 0.00 98 1002.2
20260508040106 8 290 0.0 0.0 0.00 2.90 0.00 99 1002.2
20260508034556 8 152 0.0 0.0 0.00 2.90 0.00 99 1002.3
20260508033050 8 183 0.0 0.0 0.00 2.90 0.00 99 1002.6
20260508031651 8 243 0.0 0.0 0.00 2.90 0.00 98 1002.6
20260508024555 8 227 0.0 0.0 0.00 2.90 2.90 98 1002.6
20260508023045 8 261 0.0 0.0 0.00 2.90 2.90 98 1002.5
20260508021545 8 189 0.0 0.0 0.00 2.90 2.90 98 1002.4
20260508020048 8 189 0.0 0.0 0.00 2.90 2.90 98 1002.4
20260508014546 8 189 0.0 0.0 0.00 2.90 2.90 98 1002.6
20260508013043 8 246 0.0 0.0 0.00 2.90 2.90 98 1002.6
20260508011556 8 274 0.0 0.0 0.00 2.90 2.90 98 1002.3
20260508010055 8 275 0.0 0.0 0.00 2.90 2.90 98 1002.5
20260508004554 8 270 0.0 0.0 0.00 2.90 2.90 97 1002.9
20260508003043 9 268 0.0 0.0 0.00 2.90 2.90 98 1002.8
20260508001542 9 198 0.0 0.0 0.00 2.90 2.90 98 1002.7
20260508000039 9 184 0.0 0.0 0.00 2.90 2.90 98 1002.5
20260507234538 9 189 0.0 0.0 0.00 2.90 2.90 98 1003.0
20260507233038 10 169 0.0 0.0 0.00 2.90 2.90 98 1002.7
20260507231540 10 170 0.0 0.0 0.00 2.90 2.90 98 1002.8
20260507230037 10 175 0.0 0.0 0.00 2.90 2.90 98 1003.2
20260507224537 10 208 0.0 0.0 0.00 2.90 2.90 98 1003.0
20260507223035 10 157 0.0 0.0 0.00 2.90 2.90 98 1003.4
20260507221537 10 225 0.0 0.0 0.00 2.90 2.90 98 1003.5
20260507220034 10 171 0.0 0.0 0.00 2.90 2.90 98 1003.5
20260507214534 10 200 0.0 0.0 0.03 2.90 2.90 98 1003.4
20260507213033 10 210 0.0 0.0 0.08 2.90 2.90 98 1003.3
20260507211532 10 251 0.0 0.0 0.20 2.90 2.90 97 1002.8
20260507210030 10 172 0.0 0.0 0.33 2.90 2.90 98 1002.5
20260507204528 10 165 0.0 0.0 0.51 2.84 2.84 98 1003.2
20260507203025 9 149 0.0 0.0 0.79 2.84 2.84 97 1004.1
20260507201524 9 210 0.0 0.0 1.17 2.72 2.72 97 1004.2
20260507200032 10 157 0.0 0.0 1.35 2.59 2.59 98 1004.6
20260507194521 8 170 0.0 0.0 1.37 2.36 2.36 97 1005.4
20260507193022 8 163 0.0 0.0 1.37 2.01 2.01 95 1005.9
20260507191516 11 207 0.0 0.0 1.09 1.52 1.52 96 1005.3
20260507190028 11 179 0.0 0.0 0.86 1.24 1.24 96 1005.0
20260507184512 11 160 0.0 0.0 0.61 0.97 0.97 96 1005.5
20260507183017 11 220 0.0 0.0 0.28 0.61 0.61 95 1005.9